Regional Weather Roundup
Issued by NWS

Home | Current Version | Previous Version | Text Only | Print | Product List | Glossary Off
Versions: 1 2 3 4 5 6 7 8 9 10 11 12 13 14 15 16 17 18 19 20 21 22 23 24 25 26 27 28 29 30 31 32 33 34 35 36 37 38 39 40 41 42 43 44 45 46 47 48 49 50

000
ASUS45 KPSR 201810
RWRAZ

ARIZONA REGIONAL HOURLY WEATHER ROUNDUP
NATIONAL WEATHER SERVICE PHOENIX AZ
1100 AM MST SAT SEP 20 2014

NOTE: FAIR INDICATES FEW OR NO CLOUDS BELOW 12,000 FEET WITH NO
SIGNIFICANT WEATHER AND/OR OBSTRUCTIONS TO VISIBILITY.

AZZ001>003-036-201900-
NORTHWEST ARIZONA

CITY           SKY/WX    TMP DP  RH WIND       PRES   REMARKS
BULLHEAD CITY  SUNNY     93  48  21 W6        29.87S
KINGMAN        SUNNY     88  43  20 CALM      30.04S
6HR MIN TEMP:  62; 6HR MAX TEMP:  88;

$$

AZZ004>008-015-016-018-201900-
NORTH CENTRAL ARIZONA

CITY           SKY/WX    TMP DP  RH WIND       PRES   REMARKS
GRAND CANYON   MOSUNNY   78  50  37 NE14      30.25F
6HR MIN TEMP:  48; 6HR MAX TEMP:  78;

PRESCOTT       MOSUNNY   81  47  30 VRB3      30.15F
6HR MIN TEMP:  58; 6HR MAX TEMP:  81;

FLAGSTAFF        N/A    N/A N/A N/A MISG      30.28S
PAYSON         MOSUNNY   77  57  50 W7        30.17F
PAGE           SUNNY     85  48  27 VRB3      30.09F
6HR MIN TEMP:  69; 6HR MAX TEMP:  85;

$$

AZZ009>014-017-201900-
NORTHEAST ARIZONA

CITY           SKY/WX    TMP DP  RH WIND       PRES   REMARKS
WINSLOW        SUNNY     80  53  39 CALM      30.14F
6HR MIN TEMP:  57; 6HR MAX TEMP:  80;

SAINT JOHNS    MOSUNNY   78  53  41 CALM      30.17F
6HR MIN TEMP:  56; 6HR MAX TEMP:  78;

WINDOW ROCK    SUNNY     81  39  22 N5        30.25F
6HR MIN TEMP:  44; 6HR MAX TEMP:  81;

SHOW LOW       SUNNY     75  50  41 NE3       30.25S
$$

AZZ023-201900-
GREATER PHOENIX AREA

CITY           SKY/WX    TMP DP  RH WIND       PRES   REMARKS
PHOENIX        PTSUNNY   93  63  36 SW7       29.88F
6HR MIN TEMP:  81; 6HR MAX TEMP:  93;

BUCKEYE          N/A     88  68  51 W3        29.89F
GLENDALE       MOSUNNY   90  66  45 VRB5      29.90F
LUKE AFB       SUNNY     90  60  36 CALM      29.88F
6HR MIN TEMP:  77; 6HR MAX TEMP:  90;

DEER VALLEY    SUNNY     88  67  49 S8        29.91S
6HR MIN TEMP:  77; 6HR MAX TEMP:  88;

SCOTTSDALE     SUNNY     89  66  46 CALM      29.92F
6HR MIN TEMP:  79; 6HR MAX TEMP:  90;

MESA-FALCON    MOSUNNY   91  64  40 S6        29.90F
CHANDLER       PTSUNNY   90  68  48 CALM      29.90F
$$

AZZ027-028-201900-
SOUTHWEST MARICOPA COUNTY AND PINAL COUNTY

CITY           SKY/WX    TMP DP  RH WIND       PRES   REMARKS
CASA GRANDE    SUNNY     91  68  46 S3        29.92S
6HR MIN TEMP:  77; 6HR MAX TEMP:  91;

$$

AZZ503-504-507>509-201900-
SOUTHEAST ARIZONA

CITY           SKY/WX    TMP DP  RH WIND       PRES   REMARKS
TUCSON         MOSUNNY   84  66  54 S12       30.02S
6HR MIN TEMP:  73; 6HR MAX TEMP:  85;

DAVIS-MONTHAN  MOSUNNY   84  67  55 S10       30.01R
6HR MIN TEMP:  71; 6HR MAX TEMP:  84;

RYAN FIELD       N/A     84  68  58 CALM      30.01R
NOGALES        CLOUDY    73  66  78 VRB3      30.10S
6HR MIN TEMP:  64; 6HR MAX TEMP:  73; 6HR PCP:  0.21;

SIERRA VISTA   PTSUNNY   73  62  68 W16       30.14S
6HR MIN TEMP:  67; 6HR MAX TEMP:  77;

DOUGLAS        SUNNY     81  63  54 CALM      30.09F
6HR MIN TEMP:  63; 6HR MAX TEMP:  81;

SAFFORD        SUNNY     84  63  49 SW3       30.00F
6HR MIN TEMP:  68; 6HR MAX TEMP:  84;

$$

AZZ020-021-025-026-031-201900-
SOUTHWEST ARIZONA

CITY           SKY/WX    TMP DP  RH WIND       PRES   REMARKS
YUMA           MOSUNNY   95  56  26 S12       29.83F
6HR MIN TEMP:  80; 6HR MAX TEMP:  96;

$$

CAZ031-033-041-043-047-048-061-201900-
SOUTHERN CALIFORNIA

CITY           SKY/WX    TMP DP  RH WIND       PRES   REMARKS
DOWNTOWN L.A.  CLOUDY    73  62  68 CALM      29.95S
6HR MIN TEMP:  66; 6HR MAX TEMP:  73;

L.A. AIRPORT   CLOUDY    71  61  70 W6        29.97R
6HR MIN TEMP:  66; 6HR MAX TEMP:  71;

SAN DIEGO      PTSUNNY   75  60  59 W9        29.96S
6HR MIN TEMP:  71; 6HR MAX TEMP:  75;

BURBANK        CLOUDY    68  60  75 S3        29.97R
6HR MIN TEMP:  64; 6HR MAX TEMP:  69;

ONTARIO        MOSUNNY   73  60  63 S3        29.96S
6HR MIN TEMP:  64; 6HR MAX TEMP:  73;

RIVERSIDE      MOSUNNY   73  61  65 W7        29.96S
6HR MIN TEMP:  64; 6HR MAX TEMP:  73;

PALM SPRINGS   SUNNY     92  56  29 CALM      29.87S
6HR MIN TEMP:  76; 6HR MAX TEMP:  92;

EL CENTRO NAS  MOSUNNY   93  58  30 VRB3      29.81F
6HR MIN TEMP:  75; 6HR MAX TEMP:  93;

IMPERIAL       SUNNY     92  63  38 NE8       29.81F
6HR MIN TEMP:  72; 6HR MAX TEMP:  92;

BLYTHE         PTSUNNY   90  66  45 S3        29.85S
6HR MIN TEMP:  77; 6HR MAX TEMP:  90;

NEEDLES        MOSUNNY   93  49  22 E3        29.87F
6HR MIN TEMP:  78; 6HR MAX TEMP:  93;

$$

NVZ020-UTZ003-201900-
SOUTHERN NEVADA-UTAH

CITY           SKY/WX    TMP DP  RH WIND       PRES   REMARKS
LAS VEGAS      MOSUNNY   91  40  16 CALM      29.91F
6HR MIN TEMP:  77; 6HR MAX TEMP:  91;

SALT LAKE CITY SUNNY     75  49  39 NW8       30.17F
6HR MIN TEMP:  56; 6HR MAX TEMP:  76;

$$

NMZ009-TXZ055-201900-
NEW MEXICO-WEST TEXAS

CITY           SKY/WX    TMP DP  RH WIND       PRES   REMARKS
ALBUQUERQUE    MOSUNNY   78  57  48 NW8       30.17F
6HR MIN TEMP:  63; 6HR MAX TEMP:  78;

EL PASO        MOSUNNY   81  63  54 SW3       30.07F
6HR MIN TEMP:  67; 6HR MAX TEMP:  81;

$$


........................KEY........................
SKY/WX - SKY CONDITION/WEATHER
TMP    - TEMPERATURE IN FAHRENHEIT
DP     - DEW POINT IN FAHRENHEIT
RH     - RELATIVE HUMIDITY IN PERCENT
WIND   - DIRECTION AND SPEED IN MILES PER HOUR (MPH)
VRB    - VARIABLE WIND DIRECTION
PRES   - MEAN SEA LEVEL PRESSURE IN INCHES OF MERCURY
         F - FALLING PRESSURE   R - RISING PRESSURE
         S - STEADY PRESSURE
VSB    - VISIBILITY IN MILES
HX     - HEAT INDEX IN FAHRENHEIT
WCI    - WIND CHILL INDEX IN FAHRENHEIT
TC     - TEMPERATURE IN CELSIUS WHICH IS ALSO KNOWN AS
         TEMPERATURE IN CENTIGRADE
AFB    - AIR FORCE BASE
         LUKE AFB IS LUKE AIR FORCE BASE
         DAVIS-MONTHAN IS DAVIS-MONTHAN AIR FORCE BASE
NAS    - NAVAL AIR STATION
         EL CENTRO NAS IS EL CENTRO NAVAL AIR STATION
N/A    - NOT AVAILABLE


USA.gov is the U.S. government's official web portal to all federal, state and local government web resources and services.